Location: Albany
(35.0170°S, 117.8920°E)
Time: 02:06:57
(UTC+08:00)

Explorer 7 - Pass Details

Date: 24 January 2021
Orbit: 484 x 677 km, 50.3° (Epoch: 01 March)

Event Time Altitude Azimuth Distance (km) Brightness Sun altitude
Rises 14:44:39 0° 341° (NNW) 3,015 10.9 54.5°
Reaches altitude 10° 14:47:17 10° 353° (N) 2,111 10.1 54.0°
Maximum altitude 14:51:24 27° 50° (NE) 1,289 8.8 53.1°
Drops below altitude 10° 14:55:29 10° 107° (ESE) 2,100 9.5 52.3°
Sets 14:58:06 0° 119° (ESE) 2,997 10.2 51.8°
